EZS21LM LSGG-EBBR

Flight info

Callsign EZS21LM
Flight time 0h 53m
Altitude 30000
Route ARBOS1N/04 ARBOS DCT PENDU DCT EPL DCT ROUSY DCT BATTY
Aircraft A319/M-SDE3FGHIRWY/LB1

Departure

Time 2026-05-07 20:29
Airport Geneva International Airport (LSGG)

Arrival

Time 2026-05-07 21:23
Airport Brussels Airport (EBBR)
Time Latitude Longitude Altitude Speed Heading
2026-05-07 20:05 46.23059 6.10612 1400 ft 0 kts 133°
2026-05-07 20:18 46.23063 6.10605 1391 ft 3 kts 134°
2026-05-07 20:18 46.23070 6.10595 1406 ft 0 kts 138°
2026-05-07 20:20 46.23071 6.10594 1406 ft 4 kts 139°
2026-05-07 20:20 46.23092 6.10573 1385 ft 4 kts 164°
2026-05-07 20:20 46.23113 6.10573 1385 ft 3 kts 234°
2026-05-07 20:21 46.23115 6.10577 1385 ft 0 kts 238°
2026-05-07 20:22 46.23111 6.10574 1385 ft 3 kts 223°
2026-05-07 20:22 46.23071 6.10498 1389 ft 12 kts 267°
2026-05-07 20:22 46.23137 6.10393 1387 ft 15 kts 315°
2026-05-07 20:22 46.23151 6.10274 1389 ft 14 kts 231°
2026-05-07 20:23 46.23087 6.10173 1389 ft 14 kts 226°
2026-05-07 20:23 46.23022 6.10078 1385 ft 13 kts 225°
2026-05-07 20:23 46.22956 6.09983 1388 ft 13 kts 225°
2026-05-07 20:23 46.22902 6.09902 1398 ft 10 kts 226°
2026-05-07 20:24 46.22859 6.09837 1397 ft 8 kts 226°
2026-05-07 20:24 46.22824 6.09784 1400 ft 7 kts 226°
2026-05-07 20:24 46.22767 6.09699 1401 ft 21 kts 225°
2026-05-07 20:24 46.22666 6.09551 1406 ft 21 kts 225°
2026-05-07 20:25 46.22572 6.09408 1407 ft 17 kts 241°
2026-05-07 20:25 46.22551 6.09252 1406 ft 13 kts 271°
2026-05-07 20:25 46.22551 6.09242 1404 ft 0 kts 273°
2026-05-07 20:27 46.22553 6.09201 1401 ft 13 kts 273°
2026-05-07 20:27 46.22608 6.09145 1407 ft 10 kts 28°
2026-05-07 20:28 46.22626 6.09170 1406 ft 0 kts 45°
2026-05-07 20:28 46.22730 6.09321 1410 ft 61 kts 45°
2026-05-07 20:29 46.23208 6.10021 1398 ft 132 kts 45°
2026-05-07 20:29 46.23949 6.11119 1713 ft 159 kts 47°
2026-05-07 20:29 46.24696 6.12280 2573 ft 156 kts 48°
2026-05-07 20:29 46.25422 6.13477 3310 ft 164 kts 47°
2026-05-07 20:30 46.26249 6.14734 3811 ft 181 kts 46°
2026-05-07 20:30 46.27182 6.16067 4248 ft 202 kts 45°
2026-05-07 20:30 46.28259 6.17527 4840 ft 222 kts 44°
2026-05-07 20:30 46.29431 6.19150 5378 ft 245 kts 46°
2026-05-07 20:31 46.30693 6.20984 5985 ft 267 kts 46°
2026-05-07 20:31 46.32020 6.22946 6824 ft 278 kts 46°
2026-05-07 20:31 46.33391 6.24976 7733 ft 285 kts 46°
2026-05-07 20:31 46.34794 6.27049 8667 ft 292 kts 46°
2026-05-07 20:32 46.36415 6.28859 9558 ft 300 kts 22°
2026-05-07 20:32 46.38470 6.29389 10331 ft 308 kts 357°
2026-05-07 20:32 46.40698 6.29284 10711 ft 332 kts 355°
2026-05-07 20:32 46.43089 6.29164 11049 ft 356 kts 356°
2026-05-07 20:33 46.45614 6.29061 11627 ft 368 kts 356°
2026-05-07 20:33 46.48190 6.28985 12446 ft 373 kts 357°
2026-05-07 20:33 46.50796 6.28926 13326 ft 376 kts 358°
2026-05-07 20:33 46.53431 6.28871 14157 ft 379 kts 358°
2026-05-07 20:34 46.56083 6.28811 14908 ft 382 kts 357°
2026-05-07 20:34 46.58756 6.28747 15641 ft 386 kts 357°
2026-05-07 20:34 46.61457 6.28681 16372 ft 390 kts 357°
2026-05-07 20:34 46.64138 6.28554 17077 ft 392 kts 352°
2026-05-07 20:35 46.66824 6.27839 17762 ft 393 kts 342°
2026-05-07 20:35 46.69381 6.26429 18429 ft 393 kts 331°
2026-05-07 20:35 46.71783 6.24495 19025 ft 396 kts 328°
2026-05-07 20:35 46.74187 6.22513 19627 ft 399 kts 328°
2026-05-07 20:36 46.76620 6.20522 20200 ft 402 kts 328°
2026-05-07 20:36 46.79069 6.18524 20781 ft 405 kts 328°
2026-05-07 20:36 46.81539 6.16509 21358 ft 408 kts 328°
2026-05-07 20:36 46.84024 6.14479 21932 ft 411 kts 328°
2026-05-07 20:37 46.86524 6.12434 22487 ft 414 kts 328°
2026-05-07 20:37 46.89049 6.10368 23015 ft 418 kts 328°
2026-05-07 20:37 46.91593 6.08279 23532 ft 421 kts 328°
2026-05-07 20:37 46.94155 6.06170 23970 ft 424 kts 328°
2026-05-07 20:38 46.96846 6.04329 24382 ft 430 kts 337°
2026-05-07 20:38 46.99744 6.03146 24798 ft 436 kts 347°
2026-05-07 20:38 47.02779 6.02697 25227 ft 442 kts 356°
2026-05-07 20:38 47.05868 6.02760 25659 ft 445 kts 358°
2026-05-07 20:39 47.08975 6.02826 26099 ft 447 kts 358°
2026-05-07 20:39 47.12099 6.02881 26507 ft 450 kts 358°
2026-05-07 20:39 47.15234 6.02931 26877 ft 453 kts 357°
2026-05-07 20:39 47.18355 6.02976 27241 ft 455 kts 357°
2026-05-07 20:40 47.21542 6.03028 27602 ft 458 kts 357°
2026-05-07 20:40 47.24739 6.03089 27992 ft 461 kts 358°
2026-05-07 20:40 47.27956 6.03148 28370 ft 463 kts 357°
2026-05-07 20:40 47.31188 6.03203 28723 ft 465 kts 357°
2026-05-07 20:41 47.34435 6.03258 29065 ft 468 kts 357°
2026-05-07 20:41 47.37698 6.03322 29416 ft 470 kts 357°
2026-05-07 20:41 47.40964 6.03405 29872 ft 469 kts 358°
2026-05-07 20:41 47.44228 6.03498 30025 ft 468 kts 358°
2026-05-07 20:42 47.47463 6.03600 30038 ft 464 kts 358°
2026-05-07 20:42 47.53899 6.03797 30037 ft 461 kts 358°
2026-05-07 20:43 47.60322 6.03968 30043 ft 461 kts 358°
2026-05-07 20:43 47.66734 6.04126 30050 ft 461 kts 358°
2026-05-07 20:44 47.73104 6.04300 30046 ft 460 kts 358°
2026-05-07 20:44 47.79503 6.04489 30043 ft 460 kts 358°
2026-05-07 20:45 47.85898 6.04671 30046 ft 459 kts 358°
2026-05-07 20:45 47.92288 6.04843 30038 ft 459 kts 358°
2026-05-07 20:46 47.98673 6.05008 30033 ft 459 kts 358°
2026-05-07 20:46 48.05058 6.05187 30034 ft 459 kts 358°
2026-05-07 20:47 48.11438 6.05366 30045 ft 458 kts 358°
2026-05-07 20:47 48.17814 6.05546 30041 ft 458 kts 358°
2026-05-07 20:48 48.24191 6.05729 30035 ft 458 kts 358°
2026-05-07 20:48 48.30567 6.05910 30048 ft 458 kts 359°
2026-05-07 20:49 48.36939 6.06136 30039 ft 458 kts 359°
2026-05-07 20:49 48.43314 6.06457 30041 ft 458 kts 360°
2026-05-07 20:50 48.49687 6.06791 30052 ft 458 kts 359°
2026-05-07 20:50 48.56060 6.07102 30072 ft 458 kts 359°
2026-05-07 20:51 48.62426 6.07396 30078 ft 458 kts 359°
2026-05-07 20:51 48.68764 6.07695 30071 ft 458 kts 359°
2026-05-07 20:52 48.75142 6.08003 30060 ft 459 kts 359°
2026-05-07 20:52 48.81529 6.08305 30055 ft 459 kts 359°
2026-05-07 20:53 48.87923 6.08609 30060 ft 459 kts 359°
2026-05-07 20:53 48.94312 6.08918 30076 ft 459 kts 359°
2026-05-07 20:54 49.00657 6.09217 30074 ft 459 kts 359°
2026-05-07 20:54 49.07045 6.09521 30074 ft 459 kts 359°
2026-05-07 20:55 49.13435 6.09829 30065 ft 459 kts 359°
2026-05-07 20:55 49.19819 6.10143 30066 ft 458 kts 359°
2026-05-07 20:56 49.26193 6.10457 30059 ft 458 kts 359°
2026-05-07 20:56 49.32569 6.10771 30056 ft 458 kts 359°
2026-05-07 20:57 49.38935 6.11071 30072 ft 458 kts 359°
2026-05-07 20:57 49.45296 6.11386 30073 ft 457 kts 359°
2026-05-07 20:58 49.51549 6.10627 30072 ft 453 kts 349°
2026-05-07 20:58 49.57837 6.09212 30072 ft 454 kts 349°
2026-05-07 20:59 49.64041 6.07843 30081 ft 454 kts 349°
2026-05-07 20:59 49.70292 6.06456 30078 ft 454 kts 349°
2026-05-07 21:00 49.76538 6.05056 30072 ft 454 kts 349°
2026-05-07 21:00 49.82789 6.03658 30081 ft 454 kts 349°
2026-05-07 21:01 49.89043 6.02257 30079 ft 454 kts 349°
2026-05-07 21:01 49.94231 6.01087 30077 ft 454 kts 349°
2026-05-07 21:02 50.01531 5.99429 30082 ft 453 kts 349°
2026-05-07 21:02 50.06716 5.98249 30088 ft 453 kts 349°
2026-05-07 21:03 50.12959 5.96832 30084 ft 453 kts 349°
2026-05-07 21:03 50.19199 5.95416 30078 ft 453 kts 349°
2026-05-07 21:04 50.25430 5.93992 30067 ft 453 kts 349°
2026-05-07 21:04 50.31533 5.92587 30060 ft 455 kts 349°
2026-05-07 21:05 50.32060 5.92466 30055 ft 455 kts 349°
2026-05-07 21:05 50.35187 5.91747 29838 ft 452 kts 349°
2026-05-07 21:05 50.38291 5.91034 28766 ft 451 kts 349°
2026-05-07 21:05 50.41410 5.90315 27557 ft 454 kts 349°
2026-05-07 21:06 50.44545 5.89594 26351 ft 457 kts 349°
2026-05-07 21:06 50.47704 5.88868 25124 ft 460 kts 349°
2026-05-07 21:06 50.50874 5.88134 24124 ft 459 kts 349°
2026-05-07 21:06 50.54011 5.87405 23221 ft 453 kts 349°
2026-05-07 21:07 50.57079 5.86696 22319 ft 449 kts 349°
2026-05-07 21:07 50.60095 5.85626 21508 ft 440 kts 339°
2026-05-07 21:07 50.62793 5.83618 21303 ft 419 kts 327°
2026-05-07 21:07 50.65086 5.80983 21055 ft 401 kts 316°
2026-05-07 21:08 50.66963 5.77819 20519 ft 391 kts 305°
2026-05-07 21:08 50.68381 5.74200 19917 ft 385 kts 295°
2026-05-07 21:08 50.69578 5.70432 19290 ft 383 kts 295°
2026-05-07 21:08 50.70769 5.66695 18677 ft 380 kts 295°
2026-05-07 21:09 50.71957 5.62986 18069 ft 378 kts 296°
2026-05-07 21:09 50.73140 5.59299 17461 ft 375 kts 295°
2026-05-07 21:09 50.74316 5.55638 16856 ft 372 kts 295°
2026-05-07 21:09 50.75480 5.52001 16280 ft 369 kts 295°
2026-05-07 21:10 50.76631 5.48388 15709 ft 366 kts 295°
2026-05-07 21:10 50.77769 5.44804 15154 ft 364 kts 295°
2026-05-07 21:10 50.78899 5.41243 14617 ft 361 kts 295°
2026-05-07 21:10 50.80019 5.37707 14083 ft 359 kts 295°
2026-05-07 21:11 50.81132 5.34193 13506 ft 356 kts 295°
2026-05-07 21:11 50.82238 5.30704 12892 ft 354 kts 295°
2026-05-07 21:11 50.84430 5.23765 11643 ft 350 kts 295°
2026-05-07 21:12 50.85513 5.20322 11036 ft 348 kts 295°
2026-05-07 21:12 50.86581 5.16920 10444 ft 339 kts 296°
2026-05-07 21:12 50.87602 5.13705 9853 ft 323 kts 298°
2026-05-07 21:12 50.88760 5.10774 9316 ft 306 kts 302°
2026-05-07 21:13 50.89882 5.07995 8796 ft 293 kts 302°
2026-05-07 21:13 50.90952 5.05327 8274 ft 283 kts 302°
2026-05-07 21:13 50.91997 5.02714 7762 ft 278 kts 302°
2026-05-07 21:13 50.93035 5.00118 7259 ft 280 kts 302°
2026-05-07 21:14 50.94081 4.97504 6761 ft 281 kts 302°
2026-05-07 21:14 50.95131 4.94883 6242 ft 282 kts 302°
2026-05-07 21:14 50.96184 4.92251 5741 ft 282 kts 302°
2026-05-07 21:14 50.97402 4.89899 5457 ft 273 kts 322°
2026-05-07 21:15 50.99083 4.88724 5297 ft 259 kts 353°
2026-05-07 21:15 51.00810 4.88969 5162 ft 243 kts 18°
2026-05-07 21:15 51.02362 4.89844 5059 ft 230 kts 25°
2026-05-07 21:15 51.03578 4.91322 4965 ft 216 kts 57°
2026-05-07 21:16 51.04016 4.93470 4836 ft 205 kts 92°
2026-05-07 21:16 51.03576 4.95526 4701 ft 195 kts 128°
2026-05-07 21:16 51.02502 4.96764 4322 ft 194 kts 160°
2026-05-07 21:16 51.01167 4.96771 3917 ft 197 kts 198°
2026-05-07 21:17 51.00043 4.95536 3518 ft 200 kts 226°
2026-05-07 21:17 50.99318 4.93660 3109 ft 201 kts 249°
2026-05-07 21:17 50.98846 4.91574 3007 ft 201 kts 250°
2026-05-07 21:17 50.98373 4.89471 3013 ft 203 kts 250°
2026-05-07 21:18 50.97897 4.87363 3012 ft 203 kts 249°
2026-05-07 21:18 50.97420 4.85258 3012 ft 203 kts 249°
2026-05-07 21:18 50.96940 4.83145 3014 ft 204 kts 249°
2026-05-07 21:18 50.96461 4.81035 3021 ft 203 kts 249°
2026-05-07 21:19 50.95982 4.78928 3025 ft 203 kts 249°
2026-05-07 21:19 50.95503 4.76824 3018 ft 203 kts 249°
2026-05-07 21:19 50.95023 4.74717 3011 ft 203 kts 249°
2026-05-07 21:19 50.94545 4.72621 2841 ft 198 kts 249°
2026-05-07 21:20 50.94084 4.70601 2613 ft 192 kts 249°
2026-05-07 21:20 50.93633 4.68629 2381 ft 188 kts 249°
2026-05-07 21:20 50.93191 4.66698 2121 ft 184 kts 249°
2026-05-07 21:20 50.92760 4.64812 1877 ft 180 kts 249°
2026-05-07 21:21 50.92341 4.62983 1632 ft 172 kts 249°
2026-05-07 21:21 50.91945 4.61258 1422 ft 160 kts 249°
2026-05-07 21:21 50.91570 4.59619 1317 ft 158 kts 250°
2026-05-07 21:21 50.91200 4.58006 970 ft 154 kts 250°
2026-05-07 21:22 50.90846 4.56427 702 ft 152 kts 251°
2026-05-07 21:22 50.90488 4.54874 567 ft 147 kts 249°
2026-05-07 21:22 50.90133 4.53367 372 ft 145 kts 250°
2026-05-07 21:22 50.89789 4.51877 201 ft 142 kts 250°
2026-05-07 21:23 50.89492 4.50577 175 ft 99 kts 250°
2026-05-07 21:23 50.89359 4.50001 177 ft 20 kts 250°
2026-05-07 21:23 50.89332 4.49786 177 ft 21 kts 290°
2026-05-07 21:23 50.89400 4.49606 169 ft 0 kts 309°
2026-05-07 21:24 50.89411 4.49586 168 ft 5 kts 309°
2026-05-07 21:24 50.89447 4.49515 166 ft 14 kts 309°
2026-05-07 21:24 50.89512 4.49372 164 ft 16 kts 305°
2026-05-07 21:24 50.89554 4.49283 159 ft 3 kts 308°
2026-05-07 21:25 50.89584 4.49224 156 ft 14 kts 309°
2026-05-07 21:25 50.89687 4.49160 150 ft 21 kts 16°
2026-05-07 21:25 50.89833 4.49222 142 ft 24 kts 15°
2026-05-07 21:25 50.90016 4.49300 132 ft 30 kts 14°
2026-05-07 21:26 50.90166 4.49358 126 ft 22 kts 13°
2026-05-07 21:26 50.90334 4.49426 124 ft 27 kts 15°
2026-05-07 21:26 50.90499 4.49493 123 ft 24 kts 14°
2026-05-07 21:26 50.90648 4.49555 124 ft 21 kts 15°
2026-05-07 21:27 50.90773 4.49566 121 ft 10 kts 310°
2026-05-07 21:27 50.90760 4.49473 119 ft 9 kts 244°
2026-05-07 21:27 50.90734 4.49385 119 ft 9 kts 245°
2026-05-07 21:27 50.90709 4.49298 121 ft 0 kts 246°
2026-05-07 21:28 50.90705 4.49287 119 ft 7 kts 245°
2026-05-07 21:28 50.90699 4.49264 121 ft 10 kts 246°
2026-05-07 21:29 50.90671 4.49165 121 ft 13 kts 246°
2026-05-07 21:29 50.90625 4.49007 119 ft 18 kts 245°
2026-05-07 21:29 50.90568 4.48816 120 ft 20 kts 243°
2026-05-07 21:30 50.90508 4.48597 117 ft 23 kts 246°
2026-05-07 21:30 50.90437 4.48360 118 ft 25 kts 246°
2026-05-07 21:30 50.90362 4.48101 118 ft 27 kts 244°
2026-05-07 21:30 50.90283 4.47826 118 ft 21 kts 245°
2026-05-07 21:31 50.90253 4.47723 119 ft 0 kts 245°
2026-05-07 21:31 50.90218 4.47722 118 ft 8 kts 154°
2026-05-07 21:32 50.90180 4.47752 116 ft 4 kts 155°
2026-05-07 21:32 50.90177 4.47754 120 ft 0 kts 155°